Location: Newark
(50.8547°N, 2.7256°E)
Time: 20:35:50
(UTC+00:00)

Envisat - Pass Details

Date: 31 January 2020
Orbit: 764 x 766 km, 98.1° (Epoch: 19 February)

Event Time Altitude Azimuth Distance (km) Brightness Sun altitude
Rises 05:46:59 0° 21° (NNE) 3,245 6.4 -15.9°
Reaches altitude 10° 05:49:33 10° 32° (NNE) 2,313 5.8 -15.5°
Maximum altitude 05:54:05 31° 94° (E) 1,315 5.0 -14.8°
Drops below altitude 10° 05:58:34 10° 157° (SSE) 2,297 5.9 -14.1°
Sets 06:01:06 0° 167° (SSE) 3,218 6.6 -13.7°
